Terminal Aerodrome Forecast
Issued by NWS Wilmington, OH

Current Version | Previous Version | Graphics & Text | Print | Product List | Glossary On
Versions: 1 2 3 4 5 6 7 8 9 10 11 12 13 14 15 16 17 18 19
000
FTUS41 KILN 311740
TAFDAY
TAF
KDAY 311740Z 3118/0118 24006KT P6SM VCTS BKN040CB
     FM010100 23003KT P6SM SCT250
     FM010900 23003KT 5SM BR SCT250
     FM011400 24005KT P6SM SCT025=

USA.gov is the U.S. government's official web portal to all federal, state and local government web resources and services.